BEIDOU-2 G5

Last updated on Thu Nov 21 2024 00:02:42 GMT+0000 (Coordinated Universal Time)

1 38091U 12008A 24325.09254292 .00000058 00000+0 00000+0 0 9992 2 38091 2.1442 70.8864 0011285 221.7303 219.1395 1.00266758 46616
UTC large
Height (km)
Speed (km/s)
/
Latitude / Longitude
Inclination (degrees)
Orbital Period (minutes)
Azimuth
Elevation
Range (km)
Doppler Factor

Next 0 passes for location: London (51.5072 / 0.1276)

Sorry there are no passes over London.